Regional Weather Roundup
Issued by NWS Raleigh/Durham, NC

Current Version | Previous Version | Text Only | Print | Product List | Glossary On
Versions: 1 2 3 4 5 6 7 8 9 10 11 12 13 14 15 16 17 18 19 20 21 22 23 24 25 26 27 28 29 30 31 32 33 34 35 36 37 38 39 40 41 42 43 44 45 46 47 48 49 50
000 ASUS42 KRAH 280010 RWRRAH NORTH CAROLINA WEATHER ROUNDUP NATIONAL WEATHER SERVICE RALEIGH NC 800 PM EDT MON APR 27 2015 NOTE: "FAIR" INDICATES FEW OR NO CLOUDS BELOW 12,000 FEET WITH NO SIGNIFICANT WEATHER AND/OR OBSTRUCTIONS TO VISIBILITY. NCZ001-053-055-056-065-067-280100- WESTERN NORTH CAROLINA CITY SKY/WX TMP DP RH WIND PRES REMARKS ASHEVILLE PTCLDY 58 32 37 N10G18 29.90R JEFFERSON CLEAR 48 24 38 NW9G17 29.91S MORGANTON CLEAR 62 30 30 N7 29.93R HICKORY CLEAR 60 32 34 N7 29.87R RUTHERFORDTON PTCLDY 63 33 32 NE8 29.87R MOUNT AIRY CLEAR 58 29 33 N6 29.92R BOONE CLEAR 50 26 38 NW13 29.91S $$ NCZ021-022-025-041-071-084-088-280100- CENTRAL NORTH CAROLINA CITY SKY/WX TMP DP RH WIND PRES REMARKS CHARLOTTE MOCLDY 60 35 39 N7 29.86R GREENSBORO PTCLDY 58 29 33 N6G18 29.88R WINSTON-SALEM CLEAR 58 30 34 N13 29.90R RALEIGH-DURHAM PTCLDY 61 33 35 NW6 29.86R FORT BRAGG MOCLDY 64 35 34 N5 29.83R FAYETTEVILLE MOCLDY 65 36 34 NW7 29.83R BURLINGTON CLEAR 59 30 33 NW9G18 29.87R LAURINBURG MOCLDY 64 40 41 N3 29.85R $$ NCZ011-015-027-028-043-044-047-080-103-280100- NORTHEASTERN NORTH CAROLINA CITY SKY/WX TMP DP RH WIND PRES REMARKS ROCKY MT-WILSO CLOUDY 62 37 39 N6 29.83R GREENVILLE MOCLDY 63 37 39 NW6 29.85R WASHINGTON PTCLDY 61 38 43 NW5 29.82R ELIZABETH CITY CLOUDY 56 42 59 E3 29.81R MANTEO PTCLDY 53 38 57 NE6 29.80R CAPE HATTERAS PTCLDY 51 38 60 NE7 29.80R $$ NCZ078-087-090-091-093-098-101-280100- SOUTHEASTERN NORTH CAROLINA CITY SKY/WX TMP DP RH WIND PRES REMARKS LUMBERTON MOCLDY 62 45 53 NW5 29.83R GOLDSBORO MOCLDY 64 38 37 NW6 29.81R KINSTON MOCLDY 61 39 44 CALM 29.83R KENANSVILLE PTCLDY 60 42 52 CALM 29.83R NEW BERN PTCLDY 63 37 38 W3 29.83R CHERRY POINT PTCLDY 64 36 35 NW8 29.82R BEAUFORT PTCLDY 64 44 48 NW10 29.81R JACKSONVILLE PTCLDY 62 38 40 NW7 29.82R WILMINGTON PTCLDY 64 43 46 N6 29.82R $$

USA.gov is the U.S. government's official web portal to all federal, state and local government web resources and services.